TimeMDT,TemperatureF,Dew PointF,Humidity,Sea Level PressureIn,VisibilityMPH,Wind Direction,Wind SpeedMPH,Gust SpeedMPH,PrecipitationIn,Events,Conditions,WindDirDegrees,DateUTC
12:15 AM,53.6,46.4,77,30.35,10.0,South,5.8,-,N/A,,Scattered Clouds,170,2013-07-29 06:15:00
12:35 AM,53.6,46.4,77,30.35,10.0,ESE,9.2,-,N/A,,Mostly Cloudy,120,2013-07-29 06:35:00
12:55 AM,53.6,46.4,77,30.35,10.0,South,5.8,-,N/A,,Overcast,190,2013-07-29 06:55:00
1:15 AM,53.6,44.6,72,30.35,10.0,Calm,Calm,-,N/A,,Mostly Cloudy,0,2013-07-29 07:15:00
1:35 AM,53.6,44.6,72,30.34,10.0,Calm,Calm,-,N/A,,Mostly Cloudy,0,2013-07-29 07:35:00
1:55 AM,53.6,44.6,72,30.34,10.0,Calm,Calm,-,N/A,,Scattered Clouds,0,2013-07-29 07:55:00
2:15 AM,53.6,44.6,72,30.34,10.0,Calm,Calm,-,N/A,,Mostly Cloudy,0,2013-07-29 08:15:00
2:34 AM,53.6,42.8,67,30.35,10.0,NNE,5.8,-,N/A,,Scattered Clouds,20,2013-07-29 08:34:00
2:55 AM,53.6,42.8,67,30.33,10.0,Calm,Calm,-,N/A,,Mostly Cloudy,0,2013-07-29 08:55:00
3:15 AM,51.8,44.6,76,30.33,10.0,Calm,Calm,-,N/A,,Overcast,0,2013-07-29 09:15:00
3:35 AM,53.6,44.6,72,30.33,10.0,Calm,Calm,-,N/A,Thunderstorm,Overcast,0,2013-07-29 09:35:00
3:55 AM,53.6,44.6,72,30.33,10.0,Calm,Calm,-,N/A,,Overcast,0,2013-07-29 09:55:00
4:15 AM,51.8,46.4,82,30.33,10.0,Calm,Calm,-,N/A,,Overcast,0,2013-07-29 10:15:00
4:35 AM,53.6,44.6,72,30.33,10.0,Calm,Calm,-,N/A,,Overcast,0,2013-07-29 10:35:00
4:55 AM,53.6,44.6,72,30.33,10.0,NNW,4.6,-,N/A,,Light Drizzle,330,2013-07-29 10:55:00
5:15 AM,53.6,44.6,72,30.33,10.0,WNW,8.1,-,N/A,,Overcast,290,2013-07-29 11:15:00
5:35 AM,55.4,42.8,63,30.34,10.0,West,12.7,18.4,N/A,,Overcast,270,2013-07-29 11:35:00
5:55 AM,53.6,41.0,62,30.35,10.0,West,15.0,19.6,N/A,,Overcast,280,2013-07-29 11:55:00
6:15 AM,53.6,41.0,62,30.35,10.0,West,18.4,26.5,N/A,,Overcast,260,2013-07-29 12:15:00
6:35 AM,53.6,41.0,62,30.35,10.0,NNW,8.1,20.7,N/A,,Overcast,330,2013-07-29 12:35:00
6:54 AM,51.8,41.0,67,30.36,10.0,WNW,5.8,-,N/A,,Mostly Cloudy,290,2013-07-29 12:54:00
7:15 AM,53.6,39.2,58,30.37,10.0,NNW,3.5,-,N/A,,Scattered Clouds,340,2013-07-29 13:15:00
7:35 AM,55.4,41.0,58,30.37,10.0,North,8.1,-,N/A,,Scattered Clouds,10,2013-07-29 13:35:00
7:55 AM,55.4,42.8,63,30.37,10.0,Calm,Calm,-,N/A,,Scattered Clouds,0,2013-07-29 13:55:00
8:15 AM,55.4,42.8,63,30.37,10.0,North,5.8,-,N/A,,Mostly Cloudy,360,2013-07-29 14:15:00
8:35 AM,55.4,42.8,63,30.38,10.0,North,3.5,-,N/A,,Scattered Clouds,350,2013-07-29 14:35:00
8:55 AM,59.0,42.8,55,30.37,10.0,ENE,3.5,-,N/A,,Scattered Clouds,60,2013-07-29 14:55:00
9:15 AM,60.8,42.8,52,30.38,10.0,WNW,4.6,-,N/A,,Scattered Clouds,290,2013-07-29 15:15:00
9:35 AM,59.0,41.0,51,30.38,10.0,NNW,3.5,-,N/A,,Mostly Cloudy,340,2013-07-29 15:35:00
9:55 AM,59.0,39.2,48,30.39,10.0,West,5.8,-,N/A,,Overcast,270,2013-07-29 15:55:00
10:15 AM,60.8,41.0,48,30.39,10.0,West,4.6,-,N/A,,Overcast,280,2013-07-29 16:15:00
10:35 AM,62.6,37.4,39,30.39,10.0,West,10.4,17.3,N/A,,Scattered Clouds,260,2013-07-29 16:35:00
10:55 AM,60.8,37.4,42,30.40,10.0,West,3.5,24.2,N/A,,Mostly Cloudy,260,2013-07-29 16:55:00
11:15 AM,60.8,41.0,48,30.41,10.0,NNW,6.9,-,N/A,,Mostly Cloudy,340,2013-07-29 17:15:00
11:35 AM,62.6,37.4,39,30.41,10.0,West,13.8,24.2,N/A,,Scattered Clouds,260,2013-07-29 17:35:00
11:55 AM,62.6,39.2,42,30.41,10.0,West,11.5,29.9,N/A,,Scattered Clouds,280,2013-07-29 17:55:00
12:15 PM,66.2,41.0,40,30.41,10.0,North,3.5,-,N/A,,Scattered Clouds,350,2013-07-29 18:15:00
12:35 PM,66.2,41.0,40,30.41,10.0,West,8.1,-,N/A,,Scattered Clouds,280,2013-07-29 18:35:00
12:55 PM,66.2,37.4,35,30.41,10.0,West,9.2,17.3,N/A,,Scattered Clouds,280,2013-07-29 18:55:00
1:15 PM,68.0,37.4,33,30.41,10.0,WNW,6.9,18.4,N/A,,Scattered Clouds,300,2013-07-29 19:15:00
1:35 PM,68.0,35.6,30,30.41,10.0,West,6.9,17.3,N/A,,Scattered Clouds,260,2013-07-29 19:35:00
1:55 PM,68.0,33.8,28,30.41,10.0,West,12.7,23.0,N/A,,Clear,270,2013-07-29 19:55:00
2:15 PM,68.0,33.8,28,30.42,10.0,West,11.5,26.5,N/A,,Clear,260,2013-07-29 20:15:00
2:35 PM,68.0,33.8,28,30.42,10.0,West,13.8,24.2,N/A,Thunderstorm,Scattered Clouds,260,2013-07-29 20:35:00
2:55 PM,68.0,35.6,30,30.42,10.0,West,4.6,25.3,N/A,,Scattered Clouds,270,2013-07-29 20:55:00
3:15 PM,68.0,35.6,30,30.42,10.0,NW,3.5,17.3,N/A,Thunderstorm,Mostly Cloudy,320,2013-07-29 21:15:00
3:35 PM,68.0,33.8,28,30.42,10.0,WNW,4.6,16.1,N/A,,Scattered Clouds,290,2013-07-29 21:35:00
3:55 PM,69.8,33.8,27,30.41,10.0,North,3.5,21.9,N/A,,Mostly Cloudy,10,2013-07-29 21:55:00
4:15 PM,71.6,33.8,25,30.41,10.0,WNW,5.8,-,N/A,,Scattered Clouds,300,2013-07-29 22:15:00
4:35 PM,69.8,35.6,28,30.42,10.0,WNW,6.9,-,N/A,,Clear,290,2013-07-29 22:35:00
4:55 PM,71.6,35.6,27,30.42,10.0,West,3.5,-,N/A,,Scattered Clouds,260,2013-07-29 22:55:00
5:15 PM,68.0,33.8,28,30.43,10.0,West,9.2,19.6,N/A,,Clear,260,2013-07-29 23:15:00
5:35 PM,69.8,35.6,28,30.43,10.0,Calm,Calm,-,N/A,,Clear,0,2013-07-29 23:35:00
5:55 PM,69.8,33.8,27,30.43,10.0,WNW,4.6,16.1,N/A,,Clear,290,2013-07-29 23:55:00
6:15 PM,68.0,33.8,28,30.43,10.0,West,3.5,-,N/A,,Scattered Clouds,280,2013-07-30 00:15:00
6:35 PM,64.4,35.6,34,30.44,10.0,West,6.9,-,N/A,,Mostly Cloudy,280,2013-07-30 00:35:00
6:55 PM,60.8,37.4,42,30.45,10.0,WSW,15.0,31.1,N/A,Rain,Light Rain,240,2013-07-30 00:55:00
7:15 PM,60.8,41.0,48,30.44,10.0,WSW,12.7,17.3,N/A,Thunderstorm,Mostly Cloudy,250,2013-07-30 01:15:00
7:35 PM,60.8,41.0,48,30.45,10.0,WSW,16.1,20.7,N/A,Thunderstorm,Scattered Clouds,250,2013-07-30 01:35:00
7:55 PM,60.8,37.4,42,30.46,10.0,WSW,11.5,18.4,N/A,Rain,Light Rain,250,2013-07-30 01:55:00
8:15 PM,60.8,41.0,48,30.47,10.0,West,13.8,20.7,N/A,,Scattered Clouds,260,2013-07-30 02:15:00
8:34 PM,59.0,41.0,51,30.47,10.0,West,15.0,21.9,N/A,Thunderstorm,Scattered Clouds,260,2013-07-30 02:34:00
8:55 PM,60.8,39.2,45,30.48,10.0,West,18.4,24.2,N/A,Rain-Thunderstorm,Light Thunderstorms and Rain,280,2013-07-30 02:55:00
9:15 PM,51.8,42.8,71,30.54,3.0,West,26.5,44.9,N/A,Rain-Thunderstorm,Thunderstorms and Rain,280,2013-07-30 03:15:00
9:34 PM,50.0,41.0,71,30.54,7.0,West,20.7,40.3,N/A,Rain-Thunderstorm,Light Thunderstorms and Rain,280,2013-07-30 03:34:00
9:55 PM,50.0,39.2,66,30.50,10.0,West,21.9,32.2,N/A,,Overcast,270,2013-07-30 03:55:00
10:14 PM,50.0,41.0,71,30.51,10.0,North,3.5,17.3,N/A,,Overcast,350,2013-07-30 04:14:00
10:35 PM,50.0,41.0,71,30.53,10.0,NNW,5.8,-,N/A,,Mostly Cloudy,330,2013-07-30 04:35:00
10:55 PM,50.0,41.0,71,30.52,10.0,NW,5.8,-,N/A,,Scattered Clouds,310,2013-07-30 04:55:00
11:14 PM,51.8,37.4,58,30.52,10.0,WNW,5.8,-,N/A,,Clear,300,2013-07-30 05:14:00
11:35 PM,51.8,37.4,58,30.52,10.0,NNW,5.8,-,N/A,Thunderstorm,Clear,330,2013-07-30 05:35:00
11:55 PM,51.8,35.6,54,30.53,10.0,West,5.8,-,N/A,,Clear,260,2013-07-30 05:55:00